FW6202 Rockport MA US current weather conditions

sailwx.info

Wind from 118

Air temperature 23.3° C
Dewpoint 20.9° C

Last reported at 2020-Jul-13 15:05 UTC.
Time now 2020-Jul-13 15:51 UTC

Location: N 42°39' W 070°37'.
View on Google Maps.

See reports from other nearby stations

  
Tides and Currents Weather Stations Pressure Air Temp Water Temp Dewpoint Dewpoint Depression Visibility Wind Speed Wind Dir Waves Ship Positions
date/time (UTC)wind fromknots sea level pressurealtimeterstation pressurevisibilityair tempwater tempwave heightnotes
2020-Jul-13 15:05 118 23.3
2020-Jul-13 15:00 118 23.3
2020-Jul-13 14:55 127 22.8
2020-Jul-13 14:50 127 22.8
2020-Jul-13 14:46 127 23.3
2020-Jul-13 14:40 243 23.3
2020-Jul-13 14:35 205 23.3
2020-Jul-13 14:30 205 23.3
2020-Jul-13 14:25 254 23.3
2020-Jul-13 14:20 254 23.9
2020-Jul-13 14:15 254 23.9
2020-Jul-13 14:10 254 23.9
2020-Jul-13 14:05 254 23.9
2020-Jul-13 14:01 254 23.9
2020-Jul-13 13:55 254 23.9
2020-Jul-13 13:50 254 23.9
2020-Jul-13 13:45 254 23.3
2020-Jul-13 13:40 254 23.3
2020-Jul-13 13:35 254 23.3
2020-Jul-13 13:31 254 23.3
2020-Jul-13 13:25 254 23.3
2020-Jul-13 13:20 254 23.3
2020-Jul-13 13:15 254 23.3
2020-Jul-13 13:10 254 23.3
2020-Jul-13 13:05 254 23.3
2020-Jul-13 13:00 230 22.8
2020-Jul-13 12:55 230 22.8
2020-Jul-13 12:50 230 22.8
2020-Jul-13 12:45 230 22.8
2020-Jul-13 12:40 230 22.8
2020-Jul-13 12:36 230 22.8
2020-Jul-13 12:30 230 22.8
2020-Jul-13 12:25 230 22.2
2020-Jul-13 12:20 230 22.2
2020-Jul-13 12:15 230 22.2
2020-Jul-13 12:10 230 22.2
2020-Jul-13 12:05 230 22.2
2020-Jul-13 12:01 230 22.2
2020-Jul-13 11:55 230 22.2
2020-Jul-13 11:45 230 22.2
2020-Jul-13 11:40 230 22.2
2020-Jul-13 11:30 230 22.2
2020-Jul-13 11:25 230 22.2
2020-Jul-13 11:15 230 22.2
2020-Jul-13 11:10 230 22.2
2020-Jul-13 11:00 230 22.2
2020-Jul-13 10:55 230 22.2
2020-Jul-13 10:50 230 22.2
2020-Jul-13 10:45 230 22.2
2020-Jul-13 10:40 230 22.2
2020-Jul-13 10:35 230 22.2
2020-Jul-13 10:25 230 22.2
2020-Jul-13 10:15 230 22.2
2020-Jul-13 10:10 230 22.2
2020-Jul-13 10:05 230 22.2
2020-Jul-13 09:55 230 21.7
2020-Jul-13 09:50 230 21.7
2020-Jul-13 09:40 230 22.2
2020-Jul-13 09:35 230 22.2
2020-Jul-13 09:30 230 22.2
2020-Jul-13 09:25 230 22.2
2020-Jul-13 09:20 230 22.2
2020-Jul-13 09:15 230 22.2
2020-Jul-13 09:10 230 22.2
2020-Jul-13 08:56 230 22.8
2020-Jul-13 08:51 230 22.8
2020-Jul-13 08:46 230 22.8
2020-Jul-13 08:41 230 22.8
2020-Jul-13 08:35 230 22.8
2020-Jul-13 08:31 236 23.3
2020-Jul-13 08:25 236 23.3
2020-Jul-13 08:21 236 23.3
2020-Jul-13 08:19 237 23.3
2020-Jul-13 08:11 237 23.3
2020-Jul-13 08:06 236 23.3
2020-Jul-13 08:02 236 23.3
2020-Jul-13 07:56 224 23.3
2020-Jul-13 07:50 209 23.3
2020-Jul-13 07:47 209 23.3
2020-Jul-13 07:40 180 23.3
2020-Jul-13 07:35 180 23.3
2020-Jul-13 07:31 180 23.3
2020-Jul-13 07:25 180 23.3
2020-Jul-13 07:20 199 23.3
2020-Jul-13 07:16 199 23.3
2020-Jul-13 07:10 198 23.3
2020-Jul-13 07:06 197 23.3
2020-Jul-13 07:02 197 23.3
2020-Jul-13 06:56 197 23.3
2020-Jul-13 06:50 196 23.3
2020-Jul-13 06:46 193 23.3
2020-Jul-13 06:40 193 23.3
2020-Jul-13 06:35 230 23.3
2020-Jul-13 06:31 230 23.3
2020-Jul-13 06:25 196 23.3
2020-Jul-13 06:20 230 23.3
2020-Jul-13 06:16 230 23.3
2020-Jul-13 06:10 149 23.3
2020-Jul-13 06:05 206 23.3
2020-Jul-13 06:01 204 23.3
2020-Jul-13 05:55 204 23.3
2020-Jul-13 05:50 204 23.3
2020-Jul-13 05:45 203 23.3
2020-Jul-13 05:40 203 23.3
2020-Jul-13 05:31 203 23.3
2020-Jul-13 05:25 203 23.3
2020-Jul-13 05:21 226 23.9
2020-Jul-13 05:16 226 23.9
2020-Jul-13 05:11 226 23.9
2020-Jul-13 05:05 226 23.9
2020-Jul-13 05:00 226 23.9
2020-Jul-13 04:55 172 23.9
2020-Jul-13 04:50 172 23.9
2020-Jul-13 04:47 172 23.9
2020-Jul-13 04:40 172 23.9
2020-Jul-13 04:35 172 23.9
2020-Jul-13 04:30 134 23.9
2020-Jul-13 04:25 245 23.9
2020-Jul-13 04:20 241 23.9
2020-Jul-13 04:16 240 23.9
2020-Jul-13 04:10 186 23.9
2020-Jul-13 04:05 250 23.9
2020-Jul-13 04:00 250 23.3
2020-Jul-13 03:55 250 23.3
2020-Jul-13 03:50 041 23.3
2020-Jul-13 03:46 251 23.3
2020-Jul-13 03:40 251 23.3
2020-Jul-13 03:35 102 23.9
2020-Jul-13 03:30 102 23.9
2020-Jul-13 03:25 102 23.9
2020-Jul-13 03:20 102 23.9
2020-Jul-13 03:15 102 0 gusting 1 23.9
2020-Jul-13 03:10 102 23.9
2020-Jul-13 03:05 102 0 gusting 1 24.4
2020-Jul-13 02:55 062 0 gusting 1 24.4
2020-Jul-13 02:50 055 0 gusting 1 24.4
2020-Jul-13 02:45 054 24.4
2020-Jul-13 02:40 022 24.4
2020-Jul-13 02:35 020 24.4
2020-Jul-13 02:30 020 24.4
2020-Jul-13 02:25 019 24.4
2020-Jul-13 02:20 095 24.4
2020-Jul-13 02:15 095 24.4
2020-Jul-13 02:10 095 24.4
2020-Jul-13 02:05 095 24.4
2020-Jul-13 02:00 095 24.4
2020-Jul-13 01:55 251 25.0
2020-Jul-13 01:50 251 25.0
2020-Jul-13 01:40 251 25.6
2020-Jul-13 01:35 251 25.6
2020-Jul-13 01:25 232 25.6
2020-Jul-13 01:20 232 25.6
2020-Jul-13 01:10 261 26.1
2020-Jul-13 01:05 261 26.1
2020-Jul-13 00:55 261 26.1
2020-Jul-13 00:45 261 26.7
2020-Jul-13 00:40 261 26.7
2020-Jul-13 00:35 261 26.7
2020-Jul-13 00:25 261 27.2
2020-Jul-13 00:20 261 27.2
2020-Jul-13 00:15 261 27.2
2020-Jul-13 00:10 261 27.8
2020-Jul-13 00:05 261 27.8
2020-Jul-13 00:00 184 27.8
2020-Jul-12 23:55 195 27.8
2020-Jul-12 23:50 195 27.8
2020-Jul-12 23:45 170 27.8
2020-Jul-12 23:40 121 28.3
2020-Jul-12 23:35 104 28.3
2020-Jul-12 23:25 250 28.3
2020-Jul-12 23:15 314 28.9
2020-Jul-12 23:10 253 28.9
2020-Jul-12 23:05 213 28.9
2020-Jul-12 23:00 213 28.9
2020-Jul-12 22:55 141 29.4
2020-Jul-12 22:50 208 29.4
2020-Jul-12 22:45 191 29.4
2020-Jul-12 22:40 248 0 gusting 5 29.4
2020-Jul-12 22:35 276 0 gusting 5 29.4
2020-Jul-12 22:30 245 29.4
2020-Jul-12 22:25 116 29.4
2020-Jul-12 22:20 053 29.4
2020-Jul-12 22:15 232 30.0
2020-Jul-12 22:10 234 30.0
2020-Jul-12 22:05 351 30.0
2020-Jul-12 22:00 159 1 gusting 7 30.0
2020-Jul-12 21:55 261 30.0
2020-Jul-12 21:50 240 0 gusting 4 30.0
2020-Jul-12 21:45 213 0 gusting 5 30.0
2020-Jul-12 21:40 143 0 gusting 2 30.0
2020-Jul-12 21:35 255 0 gusting 2 30.0
2020-Jul-12 21:30 282 30.0
2020-Jul-12 21:25 324 30.0
2020-Jul-12 21:17 285 0 gusting 3 30.0
2020-Jul-12 21:11 028 30.0
2020-Jul-12 21:05 123 0 gusting 8 30.6
2020-Jul-12 20:55 307 0 gusting 4 30.6
2020-Jul-12 20:50 299 0 gusting 3 30.6
2020-Jul-12 20:47 267 0 gusting 3 30.6
2020-Jul-12 20:41 178 30.6
2020-Jul-12 20:35 280 0 gusting 6 30.6
2020-Jul-12 20:31 238 1 gusting 6 30.6
2020-Jul-12 20:26 089 0 gusting 4 30.6
2020-Jul-12 20:20 131 0 gusting 2 30.6
2020-Jul-12 20:17 049 30.6
2020-Jul-12 20:10 313 30.6
2020-Jul-12 20:05 119 0 gusting 4 30.6
2020-Jul-12 20:01 085 0 gusting 6 30.6
2020-Jul-12 19:55 260 0 gusting 6 30.6
2020-Jul-12 19:50 173 0 gusting 3 30.6
2020-Jul-12 19:48 029 0 gusting 3 30.6
2020-Jul-12 19:41 040 30.6
2020-Jul-12 19:35 199 1 gusting 5 30.6
2020-Jul-12 19:31 043 0 gusting 4 31.1
2020-Jul-12 19:26 292 0 gusting 4 30.6
2020-Jul-12 19:20 204 30.6
2020-Jul-12 19:16 041 0 gusting 4 30.6
2020-Jul-12 19:11 131 0 gusting 4 30.6
2020-Jul-12 19:06 020 0 gusting 2 30.6
2020-Jul-12 19:01 072 30.6
2020-Jul-12 18:55 255 0 gusting 5 30.6
2020-Jul-12 18:50 138 0 gusting 5 30.6
2020-Jul-12 18:46 072 0 gusting 5 30.6
2020-Jul-12 18:40 062 30.6
2020-Jul-12 18:36 280 0 gusting 3 30.6
2020-Jul-12 18:31 290 30.6
2020-Jul-12 18:26 062 0 gusting 4 30.6
2020-Jul-12 18:20 246 0 gusting 3 30.6
2020-Jul-12 18:16 241 0 gusting 3 30.6
2020-Jul-12 18:10 178 1 gusting 3 30.6
2020-Jul-12 18:05 084 30.6
2020-Jul-12 18:01 309 0 gusting 4 30.0
2020-Jul-12 17:56 250 30.0
2020-Jul-12 17:50 085 30.0
2020-Jul-12 17:46 130 0 gusting 5 30.0
2020-Jul-12 17:40 234 0 gusting 4 30.6
2020-Jul-12 17:35 311 0 gusting 4 30.0
2020-Jul-12 17:31 090 30.0
2020-Jul-12 17:25 102 30.0
2020-Jul-12 17:21 184 0 gusting 6 30.0
2020-Jul-12 17:16 015 0 gusting 1 30.0
2020-Jul-12 17:11 122 0 gusting 3 30.0
2020-Jul-12 17:06 340 30.0
2020-Jul-12 17:01 157 1 gusting 3 30.0
2020-Jul-12 16:55 288 0 gusting 4 30.0
2020-Jul-12 16:50 328 0 gusting 2 30.0
2020-Jul-12 16:46 301 30.0
2020-Jul-12 16:40 001 0 gusting 5 30.0
2020-Jul-12 16:35 172 0 gusting 4 30.0
2020-Jul-12 16:31 169 0 gusting 3 30.0
2020-Jul-12 16:25 023 29.4
2020-Jul-12 16:20 315 0 gusting 5 29.4
2020-Jul-12 16:16 261 0 gusting 6 28.9
2020-Jul-12 16:10 303 0 gusting 6 28.9
2020-Jul-12 16:05 247 28.9
2020-Jul-12 16:02 174 0 gusting 3 28.9
2020-Jul-12 15:55 118 28.3
2020-Jul-12 15:50 359 28.3
2020-Jul-12 15:46 301 0 gusting 3 28.3
2020-Jul-12 15:40 145 0 gusting 2 27.8
2020-Jul-12 15:35 115 0 gusting 2 27.8
2020-Jul-12 15:31 149 27.8
2020-Jul-12 15:25 265 0 gusting 3 27.2
2020-Jul-12 15:20 212 0 gusting 4 27.2
2020-Jul-12 15:15 099 0 gusting 3 27.2
2020-Jul-12 15:10 304 0 gusting 3 27.2
2020-Jul-12 15:05 173 27.2
2020-Jul-12 15:00 024 0 gusting 4 27.2
2020-Jul-12 14:55 174 0 gusting 4 26.7
2020-Jul-12 14:50 184 0 gusting 6 26.1
2020-Jul-12 14:45 178 0 gusting 6 25.6
2020-Jul-12 14:40 027 25.6
2020-Jul-12 14:35 186 25.6
2020-Jul-12 14:30 267 0 gusting 2 25.6
2020-Jul-12 14:25 137 25.0
2020-Jul-12 14:15 122 25.0
2020-Jul-12 14:10 114 0 gusting 2 25.0
2020-Jul-12 14:05 126 0 gusting 2 25.0
2020-Jul-12 13:55 091 0 gusting 2 24.4
2020-Jul-12 13:50 183 0 gusting 2 24.4
2020-Jul-12 13:45 145 0 gusting 2 24.4
2020-Jul-12 13:40 094 0 gusting 2 23.9
2020-Jul-12 13:35 155 0 gusting 3 23.9
2020-Jul-12 13:26 144 0 gusting 3 23.9
2020-Jul-12 13:21 141 0 gusting 3 23.9
2020-Jul-12 13:16 179 0 gusting 2 23.9
2020-Jul-12 13:10 046 0 gusting 2 23.3
2020-Jul-12 13:05 141 0 gusting 2 23.3
2020-Jul-12 13:01 128 0 gusting 3 23.3
2020-Jul-12 12:55 141 0 gusting 4 23.3
2020-Jul-12 12:50 141 0 gusting 2 23.3
2020-Jul-12 12:46 224 0 gusting 3 23.3
2020-Jul-12 12:40 112 0 gusting 4 22.8
2020-Jul-12 12:35 124 1 gusting 4 22.8
2020-Jul-12 12:32 228 0 gusting 3 22.8
2020-Jul-12 12:25 008 0 gusting 2 22.8
2020-Jul-12 12:20 220 0 gusting 3 22.2
2020-Jul-12 12:16 131 0 gusting 2 22.2
2020-Jul-12 12:10 184 0 gusting 2 22.2
2020-Jul-12 12:05 137 0 gusting 2 22.2
2020-Jul-12 12:00 082 0 gusting 2 22.2
2020-Jul-12 11:55 127 0 gusting 2 21.7
2020-Jul-12 11:50 097 0 gusting 2 21.7
2020-Jul-12 11:45 089 0 gusting 2 21.7
2020-Jul-12 11:40 118 0 gusting 4 21.7
2020-Jul-12 11:35 156 0 gusting 4 21.7
2020-Jul-12 11:30 037 0 gusting 2 21.7
2020-Jul-12 11:25 149 0 gusting 2 21.7
2020-Jul-12 11:20 151 0 gusting 2 21.7
2020-Jul-12 11:15 211 0 gusting 3 21.7
2020-Jul-12 11:10 101 0 gusting 3 21.7
2020-Jul-12 11:05 333 21.7
2020-Jul-12 11:01 118 0 gusting 3 21.7
2020-Jul-12 10:55 131 0 gusting 2 21.1
2020-Jul-12 10:50 131 0 gusting 2 21.1
2020-Jul-12 10:46 128 0 gusting 3 21.1
2020-Jul-12 10:40 126 0 gusting 3 21.1
2020-Jul-12 10:35 152 0 gusting 3 21.1
2020-Jul-12 10:30 155 0 gusting 2 21.1
2020-Jul-12 10:25 315 0 gusting 2 21.1
2020-Jul-12 10:20 143 0 gusting 2 21.1
2020-Jul-12 10:15 130 21.1
2020-Jul-12 10:10 121 0 gusting 2 20.6
2020-Jul-12 10:05 114 0 gusting 2 20.6
2020-Jul-12 09:55 114 0 gusting 2 20.6
2020-Jul-12 09:50 114 0 gusting 2 20.6
2020-Jul-12 09:46 116 0 gusting 2 20.6
2020-Jul-12 09:40 100 0 gusting 2 20.6
2020-Jul-12 09:35 113 1 gusting 2 20.6
2020-Jul-12 09:31 113 0 gusting 2 20.6
2020-Jul-12 09:25 113 0 gusting 2 20.6
2020-Jul-12 09:20 113 0 gusting 2 20.6
2020-Jul-12 09:15 125 0 gusting 2 20.6
2020-Jul-12 09:10 125 1 gusting 2 20.6
2020-Jul-12 09:05 116 0 gusting 2 20.6
2020-Jul-12 09:00 116 1 gusting 2 20.6
2020-Jul-12 08:55 116 0 gusting 2 20.6
2020-Jul-12 08:50 113 1 gusting 2 20.6
2020-Jul-12 08:45 113 0 gusting 2 20.6
2020-Jul-12 08:40 113 0 gusting 3 20.6
2020-Jul-12 08:35 113 1 gusting 3 20.6
2020-Jul-12 08:30 125 1 gusting 2 20.6
2020-Jul-12 08:25 127 1 gusting 2 20.6
2020-Jul-12 08:15 127 1 gusting 2 21.1
2020-Jul-12 08:10 127 0 gusting 2 21.1
2020-Jul-12 08:05 127 0 gusting 2 20.6
2020-Jul-12 08:00 130 0 gusting 2 20.6
2020-Jul-12 07:55 119 0 gusting 3 20.6
2020-Jul-12 07:50 113 1 gusting 3 20.6
2020-Jul-12 07:45 130 1 gusting 2 20.6
2020-Jul-12 07:40 136 1 gusting 2 20.6
2020-Jul-12 07:35 127 1 gusting 2 20.6
2020-Jul-12 07:25 116 0 gusting 2 20.6
2020-Jul-12 07:20 116 1 gusting 3 20.6
2020-Jul-12 07:10 117 1 gusting 2 20.6
2020-Jul-12 07:05 119 0 gusting 3 20.6
2020-Jul-12 07:00 113 1 gusting 2 20.6
2020-Jul-12 06:55 116 0 gusting 4 20.6
2020-Jul-12 06:50 122 1 gusting 4 20.6
2020-Jul-12 06:40 121 1 gusting 2 20.6
2020-Jul-12 06:35 115 0 gusting 2 20.6
2020-Jul-12 06:30 104 1 gusting 2 20.6
2020-Jul-12 06:25 116 1 gusting 2 20.6
2020-Jul-12 06:20 115 1 gusting 2 20.6
2020-Jul-12 06:10 113 0 gusting 3 20.6
2020-Jul-12 06:05 113 1 gusting 3 20.6
2020-Jul-12 05:55 113 0 gusting 3 20.6
2020-Jul-12 05:45 112 0 gusting 3 20.6
2020-Jul-12 05:40 115 1 gusting 2 21.1
2020-Jul-12 05:35 115 1 gusting 2 21.1
2020-Jul-12 05:26 126 0 gusting 2 21.1
2020-Jul-12 05:21 126 0 gusting 2 21.1
2020-Jul-12 05:16 122 0 gusting 2 21.1
2020-Jul-12 05:11 122 0 gusting 2 21.1
2020-Jul-12 05:06 122 0 gusting 3 21.1
2020-Jul-12 05:01 107 1 gusting 3 21.1
2020-Jul-12 04:56 200 0 gusting 2 21.1
2020-Jul-12 04:51 201 0 gusting 3 21.1
2020-Jul-12 04:46 047 0 gusting 3 21.1
2020-Jul-12 04:41 115 0 gusting 2 21.1
2020-Jul-12 04:36 115 0 gusting 4 21.1
2020-Jul-12 04:32 113 1 gusting 4 21.1
2020-Jul-12 04:26 118 1 gusting 3 21.1
2020-Jul-12 04:20 109 1 gusting 4 21.1
2020-Jul-12 04:16 110 1 gusting 4 21.1
2020-Jul-12 04:10 130 0 gusting 2 21.1
2020-Jul-12 04:05 130 0 gusting 2 21.1
2020-Jul-12 04:01 130 0 gusting 2 21.1
2020-Jul-12 03:56 130 0 gusting 2 21.1
2020-Jul-12 03:50 130 0 gusting 2 21.1
2020-Jul-12 03:46 130 0 gusting 2 21.7
2020-Jul-12 03:40 130 0 gusting 2 21.7
2020-Jul-12 03:35 130 1 gusting 2 21.7
2020-Jul-12 03:32 130 0 gusting 2 21.7
2020-Jul-12 03:25 131 1 gusting 2 21.7
2020-Jul-12 03:21 131 1 gusting 2 21.7
2020-Jul-12 03:16 132 0 gusting 1 21.7
2020-Jul-12 03:10 132 0 gusting 1 21.7
2020-Jul-12 03:05 132 21.7
2020-Jul-12 03:01 132 0 gusting 2 21.7
2020-Jul-12 02:55 110 0 gusting 3 21.7
2020-Jul-12 02:50 109 0 gusting 3 21.7
2020-Jul-12 02:46 107 0 gusting 3 21.7
2020-Jul-12 02:40 116 0 gusting 3 21.7
2020-Jul-12 02:35 115 0 gusting 3 21.7
2020-Jul-12 02:31 114 1 gusting 3 21.7
2020-Jul-12 02:25 114 1 gusting 3 21.7
2020-Jul-12 02:21 113 0 gusting 2 21.7
2020-Jul-12 02:15 113 0 gusting 2 21.7
2020-Jul-12 02:10 113 0 gusting 2 21.7
2020-Jul-12 02:05 113 0 gusting 2 21.1
2020-Jul-12 02:00 111 0 gusting 2 21.1
2020-Jul-12 01:55 111 0 gusting 2 21.1
2020-Jul-12 01:50 110 0 gusting 3 21.1
2020-Jul-12 01:46 111 1 gusting 3 21.7
2020-Jul-12 01:40 113 0 gusting 2 21.7
2020-Jul-12 01:35 112 0 gusting 2 21.7
2020-Jul-12 01:31 112 0 gusting 2 21.7
2020-Jul-12 01:25 112 0 gusting 2 21.7
2020-Jul-12 01:20 112 0 gusting 1 21.7
2020-Jul-12 01:17 112 0 gusting 1 21.7
2020-Jul-12 01:10 112 0 gusting 1 21.7
2020-Jul-12 01:05 112 0 gusting 3 21.7
2020-Jul-12 01:00 112 1 gusting 3 21.7
2020-Jul-12 00:55 107 1 gusting 3 21.7
2020-Jul-12 00:50 122 1 gusting 2 21.7
2020-Jul-12 00:46 122 1 gusting 2 22.2
2020-Jul-12 00:40 122 0 gusting 2 22.2
2020-Jul-12 00:35 122 0 gusting 2 22.2
2020-Jul-12 00:31 122 1 gusting 3 22.2
2020-Jul-12 00:25 134 1 gusting 3 22.2
2020-Jul-12 00:20 113 1 gusting 2 22.2
2020-Jul-12 00:16 113 0 gusting 2 22.2
2020-Jul-12 00:10 111 0 gusting 2 22.2
2020-Jul-12 00:05 130 0 gusting 2 22.8
2020-Jul-12 00:00 108 0 gusting 2 22.8
2020-Jul-11 23:56 120 1 gusting 3 22.8
2020-Jul-11 23:50 120 1 gusting 3 22.8
2020-Jul-11 23:45 125 1 gusting 5 22.8
2020-Jul-11 23:40 105 1 gusting 5 22.8
2020-Jul-11 23:35 109 1 gusting 5 22.8
2020-Jul-11 23:30 105 1 gusting 3 22.8
2020-Jul-11 23:25 124 1 gusting 3 22.8
2020-Jul-11 23:20 103 1 gusting 3 22.8
2020-Jul-11 23:16 116 1 gusting 3 23.3
2020-Jul-11 23:10 114 1 gusting 3 22.8
2020-Jul-11 23:05 104 1 gusting 5 23.3
2020-Jul-11 23:00 089 1 gusting 5 23.3
2020-Jul-11 22:55 121 1 gusting 3 23.3
2020-Jul-11 22:50 122 1 gusting 3 23.3
2020-Jul-11 22:46 117 1 gusting 3 23.3
2020-Jul-11 22:40 109 1 gusting 3 23.3
2020-Jul-11 22:35 113 1 gusting 4 23.3
2020-Jul-11 22:30 089 1 gusting 4 23.3
2020-Jul-11 22:25 106 1 gusting 4 23.3
2020-Jul-11 22:20 125 1 gusting 4 23.3
2020-Jul-11 22:15 092 1 gusting 4 23.3
2020-Jul-11 22:10 112 1 gusting 4 23.3
2020-Jul-11 22:05 116 1 gusting 5 23.3
2020-Jul-11 22:01 115 2 gusting 5 23.9
2020-Jul-11 21:55 106 1 gusting 6 23.9
2020-Jul-11 21:50 104 2 gusting 6 23.9
2020-Jul-11 21:45 109 1 gusting 8 23.9
2020-Jul-11 21:40 104 1 gusting 5 23.9
2020-Jul-11 21:35 103 2 gusting 5 23.9
2020-Jul-11 21:30 113 1 gusting 5 23.9
2020-Jul-11 21:25 103 2 gusting 6 23.9
2020-Jul-11 21:20 107 3 gusting 7 23.9
2020-Jul-11 21:15 112 3 gusting 7 23.9
2020-Jul-11 21:10 128 1 gusting 5 23.9
2020-Jul-11 21:05 114 2 gusting 8 23.9
2020-Jul-11 21:01 089 2 gusting 6 23.9
2020-Jul-11 20:55 097 2 gusting 5 23.9
2020-Jul-11 20:50 106 2 gusting 5 23.9
2020-Jul-11 20:46 100 2 gusting 7 24.4
2020-Jul-11 20:40 089 3 gusting 7 24.4
2020-Jul-11 20:35 101 2 gusting 6 23.9
2020-Jul-11 20:30 103 2 gusting 8 24.4
2020-Jul-11 20:25 100 3 gusting 8 23.9
2020-Jul-11 20:15 121 3 gusting 7 23.9
2020-Jul-11 20:10 100 2 gusting 6 23.9
2020-Jul-11 20:05 099 3 gusting 8 23.9
2020-Jul-11 19:55 113 2 gusting 7 23.9
2020-Jul-11 19:45 113 1 gusting 6 23.9
2020-Jul-11 19:40 113 2 gusting 5 23.9
2020-Jul-11 19:35 113 2 gusting 5 23.9
2020-Jul-11 19:25 113 1 gusting 4 23.9
2020-Jul-11 19:20 105 2 gusting 4 23.9
2020-Jul-11 19:10 113 2 gusting 5 23.9
2020-Jul-11 19:05 103 2 gusting 5 23.9
2020-Jul-11 19:00 048 2 gusting 7 23.9
2020-Jul-11 18:55 110 2 gusting 7 23.9
2020-Jul-11 18:50 111 3 gusting 7 23.9
2020-Jul-11 18:45 103 1 gusting 6 23.9
2020-Jul-11 18:40 109 2 gusting 6 23.9
2020-Jul-11 18:35 126 1 gusting 5 23.9
2020-Jul-11 18:30 111 2 gusting 5 23.9
2020-Jul-11 18:25 101 2 gusting 6 23.9
2020-Jul-11 18:20 105 2 gusting 6 23.9
2020-Jul-11 18:10 095 2 gusting 5 23.9
2020-Jul-11 18:05 105 2 gusting 5 23.9
2020-Jul-11 17:55 108 2 gusting 6 23.9
2020-Jul-11 17:51 115 3 gusting 5 23.9
2020-Jul-11 17:46 116 2 gusting 9 23.9
2020-Jul-11 17:40 107 4 gusting 9 23.9
2020-Jul-11 17:35 108 3 gusting 9 23.9
2020-Jul-11 17:32 107 3 gusting 8 23.9
2020-Jul-11 17:26 108 3 gusting 8 23.9
2020-Jul-11 17:20 092 3 gusting 11 23.9
2020-Jul-11 17:16 114 3 gusting 11 23.9
2020-Jul-11 17:10 103 3 gusting 8 23.3
2020-Jul-11 17:05 100 3 gusting 7 23.9
2020-Jul-11 17:02 106 2 gusting 8 23.9
2020-Jul-11 16:55 109 2 gusting 8 23.3
2020-Jul-11 16:50 108 2 gusting 9 23.3
2020-Jul-11 16:46 124 4 gusting 8 23.3
2020-Jul-11 16:40 122 4 gusting 12 23.3
2020-Jul-11 16:35 107 4 gusting 12 23.3
2020-Jul-11 16:30 123 2 gusting 6 23.3
2020-Jul-11 16:25 091 3 gusting 8 23.3
2020-Jul-11 16:20 103 2 gusting 8 23.3
2020-Jul-11 16:16 107 3 gusting 6 23.3
2020-Jul-11 16:10 097 3 gusting 8 23.3
2020-Jul-11 16:06 100 3 gusting 8 23.3
2020-Jul-11 16:01 141 3 gusting 8 23.3
2020-Jul-11 15:55 099 2 gusting 6 23.3
2020-Jul-11 15:50 102 3 gusting 6 23.3
2020-Jul-11 15:46 100 2 gusting 6 23.3
2020-Jul-11 15:40 092 2 gusting 5 23.3
2020-Jul-11 15:35 098 2 gusting 6 22.8
2020-Jul-11 15:31 105 2 gusting 5 22.8
2020-Jul-11 15:25 078 2 gusting 5 22.8
2020-Jul-11 15:20 112 2 gusting 5 22.8
2020-Jul-11 15:15 107 2 gusting 6 22.8
2020-Jul-11 15:10 113 2 gusting 6 22.2
2020-Jul-11 15:05 099 3 gusting 6 22.2
2020-Jul-11 15:00 095 2 gusting 6 22.2